FW6664 Weather Reports


Display with metric or nautical units.
time (UTC)temp
F
wind
direction
speed
MPH
gust
MPH
rain 1hr
in
rain 24hr
in
rain mn
in
humidity
%
barometer
mb
20260901033508 70 238 3.0 3.0 0.00 0.00 0.00 33 1017.0
20260901033338 70 238 3.0 0.0 0.00 0.00 0.00 33 1017.0
20260901033107 70 238 1.0 2.0 0.00 0.00 0.00 33 1017.0
20260901033002 70 238 2.0 2.0 0.00 0.00 0.00 33 1017.0
20260901032833 70 238 1.0 0.0 0.00 0.00 0.00 33 1017.0
20260901032551 70 238 2.0 2.0 0.00 0.00 0.00 33 1017.0
20260901032329 71 238 2.0 0.0 0.00 0.00 0.00 33 1017.0
20260901032045 70 238 1.0 2.0 0.00 0.00 0.00 33 1017.0
20260901031844 71 238 2.0 0.0 0.00 0.00 0.00 33 1017.0
20260901031540 70 238 2.0 2.0 0.00 0.00 0.00 33 1017.0
20260901031340 71 238 3.0 0.0 0.00 0.00 0.00 33 1017.0
20260901031033 71 238 1.0 3.0 0.00 0.00 0.00 33 1017.0
20260901030858 71 238 3.0 0.0 0.00 0.00 0.00 33 1017.0
20260901030511 71 238 1.0 3.0 0.00 0.00 0.00 33 1017.0
20260901030335 71 238 5.0 0.0 0.00 0.00 0.00 33 1017.0
20260901030100 71 238 2.0 3.0 0.00 0.00 0.00 33 1017.0
20260901030007 71 238 3.0 3.0 0.00 0.00 0.00 33 1017.0
20260901025852 72 238 3.0 0.0 0.00 0.00 0.00 33 1017.0
20260901025535 71 238 1.0 2.0 0.00 0.00 0.00 33 1017.0
20260901025328 72 238 2.0 0.0 0.00 0.00 0.00 33 1017.0
20260901025030 72 238 2.0 3.0 0.00 0.00 0.00 33 1017.0
20260901024824 72 238 2.0 0.0 0.00 0.00 0.00 33 1017.0
20260901024527 72 238 2.0 3.0 0.00 0.00 0.00 33 1017.0
20260901024340 72 238 3.0 0.0 0.00 0.00 0.00 33 1017.0
20260901024017 72 238 2.0 3.0 0.00 0.00 0.00 33 1017.0
20260901023837 73 238 6.0 0.0 0.00 0.00 0.00 33 1017.0
20260901023545 72 239 2.0 4.0 0.00 0.00 0.00 33 1017.0
20260901023333 73 239 3.0 0.0 0.00 0.00 0.00 33 1017.0
20260901023041 73 224 2.0 4.0 0.00 0.00 0.00 33 1017.0
20260901022830 73 224 3.0 0.0 0.00 0.00 0.00 33 1017.0
20260901022536 73 224 3.0 4.0 0.00 0.00 0.00 33 1017.0
20260901022347 74 228 4.0 0.0 0.00 0.00 0.00 33 1017.0
20260901022028 74 235 3.0 4.0 0.00 0.00 0.00 33 1017.0
20260901021902 75 253 4.0 0.0 0.00 0.00 0.00 33 1017.0
20260901021606 74 235 3.0 4.0 0.00 0.00 0.00 33 1017.0
20260901021501 75 285 2.0 4.0 0.00 0.00 0.00 33 1017.0
20260901021337 75 219 6.0 0.0 0.00 0.00 0.00 33 1017.0
20260901021052 75 278 3.0 5.0 0.00 0.00 0.00 33 1017.0
20260901020854 76 259 3.0 0.0 0.00 0.00 0.00 33 1017.0
20260901020526 76 234 3.0 6.0 0.00 0.00 0.00 33 1017.0
20260901020331 77 292 3.0 0.0 0.00 0.00 0.00 33 1017.0
20260901020020 77 300 5.0 6.0 0.00 0.00 0.00 33 1017.0
20260901015827 77 289 4.0 0.0 0.00 0.00 0.00 33 1017.0
20260901015513 77 284 3.0 3.0 0.00 0.00 0.00 33 1017.0
20260901015341 78 284 3.0 0.0 0.00 0.00 0.00 33 1017.0
20260901015005 77 284 2.0 5.0 0.00 0.00 0.00 33 1017.0
20260901014900 78 284 3.0 0.0 0.00 0.00 0.00 33 1017.0
20260901014537 78 288 3.0 5.0 0.00 0.00 0.00 33 1017.0
20260901014334 78 247 2.0 0.0 0.00 0.00 0.00 33 1017.0
20260901014030 78 229 4.0 5.0 0.00 0.00 0.00 33 1017.0
20260901013835 79 250 4.0 0.0 0.00 0.00 0.00 33 1017.0
20260901013521 78 273 3.0 5.0 0.00 0.00 0.00 33 1017.0
20260901013330 79 264 2.0 0.0 0.00 0.00 0.00 33 1017.0
20260901013017 78 283 2.0 6.0 0.00 0.00 0.00 33 1017.0
20260901012826 79 246 3.0 0.0 0.00 0.00 0.00 33 1017.0
20260901012508 79 245 3.0 6.0 0.00 0.00 0.00 33 1017.0
20260901012341 79 245 5.0 0.0 0.00 0.00 0.00 33 1017.0
20260901012058 79 299 4.0 6.0 0.00 0.00 0.00 33 1017.0
20260901012002 79 271 4.0 6.0 0.00 0.00 0.00 33 1017.0
20260901011835 80 268 5.0 0.0 0.00 0.00 0.00 33 1017.0
20260901011536 80 277 4.0 6.0 0.00 0.00 0.00 33 1017.0
20260901011333 80 267 7.0 0.0 0.00 0.00 0.00 33 1017.0
20260901011029 80 219 2.0 6.0 0.00 0.00 0.00 33 1017.0
20260901010853 81 258 6.0 0.0 0.00 0.00 0.00 33 1017.0
20260901010603 81 288 4.0 6.0 0.00 0.00 0.00 33 1017.0
20260901010503 81 281 5.0 6.0 0.00 0.00 0.00 33 1017.0
20260901010327 81 295 4.0 0.0 0.00 0.00 0.00 33 1017.0
20260901010100 81 297 3.0 6.0 0.00 0.00 0.00 33 1017.0
20260901005826 81 261 3.0 0.0 0.00 0.00 0.00 33 1017.0
20260901005549 81 290 4.0 7.0 0.00 0.00 0.00 33 1017.0
20260901005342 81 284 2.0 0.0 0.00 0.00 0.00 33 1017.0
20260901005044 80 275 6.0 7.0 0.00 0.00 0.00 33 1017.0
20260901004901 81 276 6.0 0.0 0.00 0.00 0.00 33 1017.0
20260901004520 81 267 2.0 6.0 0.00 0.00 0.00 33 1017.0
20260901004337 81 263 2.0 0.0 0.00 0.00 0.00 33 1017.0
20260901004014 80 273 5.0 6.0 0.00 0.00 0.00 33 1017.0
20260901003854 81 229 3.0 0.0 0.00 0.00 0.00 33 1017.0
20260901003544 80 229 4.0 6.0 0.00 0.00 0.00 33 1017.0
20260901003331 81 269 4.0 0.0 0.00 0.00 0.00 33 1017.0
20260901003050 81 214 3.0 7.0 0.00 0.00 0.00 33 1017.0
20260901002851 81 234 6.0 0.0 0.00 0.00 0.00 33 1017.0
20260901002520 81 228 3.0 7.0 0.00 0.00 0.00 33 1017.0
20260901002327 82 275 3.0 0.0 0.00 0.00 0.00 33 1017.0
20260901002009 81 272 3.0 6.0 0.00 0.00 0.00 33 1017.0
20260901001844 81 284 7.0 0.0 0.00 0.00 0.00 33 1017.0
20260901001541 81 287 4.0 6.0 0.00 0.00 0.00 33 1017.0
20260901001340 81 283 7.0 0.0 0.00 0.00 0.00 33 1017.0
20260901001012 82 212 5.0 6.0 0.00 0.00 0.00 33 1017.0
20260901000856 82 255 9.0 0.0 0.00 0.00 0.00 33 1017.0
20260901000545 82 258 4.0 6.0 0.00 0.00 0.00 33 1017.0
20260901000358 83 295 8.0 0.0 0.00 0.00 0.00 33 1017.0
20260901000010 82 276 4.0 8.0 0.00 0.00 0.00 33 1017.0
20260831235842 82 291 4.0 0.0 0.00 0.00 0.00 33 1017.0
20260831235559 82 286 4.0 8.0 0.00 0.00 0.00 33 1017.0
20260831235502 82 267 4.0 8.0 0.00 0.00 0.00 33 1017.0
20260831235358 83 279 9.0 0.0 0.00 0.00 0.00 33 1017.0
20260831235032 82 274 7.0 8.0 0.00 0.00 0.00 33 1017.0
20260831234833 83 265 6.0 0.0 0.00 0.00 0.00 33 1017.0
20260831234537 82 293 4.0 6.0 0.00 0.00 0.00 33 1017.0
20260831234332 83 282 5.0 0.0 0.00 0.00 0.00 33 1017.0
20260831234023 82 260 6.0 8.0 0.00 0.00 0.00 33 1017.0
20260831233851 83 302 3.0 0.0 0.00 0.00 0.00 33 1017.0
20260831233554 82 230 5.0 8.0 0.00 0.00 0.00 33 1017.0
20260831233336 82 300 2.0 0.0 0.00 0.00 0.00 33 1017.0
20260831233039 81 298 3.0 6.0 0.00 0.00 0.00 33 1017.0
20260831232853 81 212 3.0 0.0 0.00 0.00 0.00 33 1017.0
20260831232508 81 237 4.0 6.0 0.00 0.00 0.00 33 1017.0
20260831232345 81 292 5.0 0.0 0.00 0.00 0.00 33 1017.0
20260831232059 81 248 5.0 6.0 0.00 0.00 0.00 33 1017.0
20260831232003 81 282 4.0 6.0 0.00 0.00 0.00 33 1017.0
20260831231906 82 251 7.0 0.0 0.00 0.00 0.00 33 1017.0
20260831231534 81 228 6.0 8.0 0.00 0.00 0.00 33 1017.0
20260831231339 82 234 10.0 0.0 0.00 0.00 0.00 33 1017.0
20260831231005 82 285 3.0 8.0 0.00 0.00 0.00 33 1017.0
20260831230857 83 252 5.0 0.0 0.00 0.00 0.00 33 1017.0
20260831230539 82 273 6.0 6.0 0.00 0.00 0.00 33 1017.0
20260831230355 83 256 5.0 0.0 0.00 0.00 0.00 33 1017.0
20260831230013 82 226 2.0 6.0 0.00 0.00 0.00 33 1017.0
20260831225831 82 256 7.0 0.0 0.00 0.00 0.00 33 1017.0
20260831225507 82 213 4.0 9.0 0.00 0.00 0.00 33 1017.0
20260831225329 83 284 4.0 0.0 0.00 0.00 0.00 33 1017.0
20260831225059 82 241 6.0 9.0 0.00 0.00 0.00 33 1017.0
20260831225006 82 288 5.0 9.0 0.00 0.00 0.00 33 1017.0
20260831224846 82 300 5.0 0.0 0.00 0.00 0.00 33 1017.0
20260831224554 81 278 4.0 8.0 0.00 0.00 0.00 33 1017.0
20260831224342 81 266 10.0 0.0 0.00 0.00 0.00 33 1017.0
20260831224047 81 229 5.0 8.0 0.00 0.00 0.00 33 1017.0
20260831223859 82 219 13.0 0.0 0.00 0.00 0.00 33 1017.0
20260831223520 81 278 6.0 8.0 0.00 0.00 0.00 33 1017.0
20260831223337 83 196 6.0 0.0 0.00 0.00 0.00 33 1017.0
20260831223011 82 213 3.0 8.0 0.00 0.00 0.00 33 1017.0
20260831222831 82 237 3.0 0.0 0.00 0.00 0.00 33 1017.0
20260831222600 82 220 7.0 10.0 0.00 0.00 0.00 33 1017.0
20260831222502 82 243 4.0 10.0 0.00 0.00 0.00 33 1017.0
20260831222345 82 277 6.0 0.0 0.00 0.00 0.00 33 1017.0
20260831222052 82 217 5.0 11.0 0.00 0.00 0.00 33 1017.0
20260831221903 83 238 2.0 0.0 0.00 0.00 0.00 33 1017.0
20260831221527 83 252 7.0 11.0 0.00 0.00 0.00 33 1017.0
20260831221338 84 268 10.0 0.0 0.00 0.00 0.00 33 1017.0
20260831221020 83 299 6.0 13.0 0.00 0.00 0.00 33 1017.0
20260831220834 84 262 11.0 0.0 0.00 0.00 0.00 33 1017.0
20260831220516 83 288 7.0 13.0 0.00 0.00 0.00 33 1017.0
20260831220332 83 275 10.0 0.0 0.00 0.00 0.00 33 1017.0
20260831220020 83 285 9.0 12.0 0.00 0.00 0.00 33 1017.0
20260831215851 84 236 14.0 0.0 0.00 0.00 0.00 33 1017.0
20260831215544 83 263 6.0 12.0 0.00 0.00 0.00 33 1017.0
20260831215347 84 264 9.0 0.0 0.00 0.00 0.00 33 1017.0
20260831215038 83 242 6.0 7.0 0.00 0.00 0.00 33 1017.0
20260831214841 84 240 5.0 0.0 0.00 0.00 0.00 33 1017.0
20260831214529 83 312 5.0 8.0 0.00 0.00 0.00 33 1017.0
20260831214336 83 215 6.0 0.0 0.00 0.00 0.00 33 1017.0
20260831214020 82 200 4.0 10.0 0.00 0.00 0.00 33 1017.0
20260831213831 83 258 5.0 0.0 0.00 0.00 0.00 33 1017.0
20260831213513 83 300 9.0 10.0 0.00 0.00 0.00 33 1017.0
20260831213347 83 290 10.0 0.0 0.00 0.00 0.00 33 1017.0
20260831213020 82 222 3.0 6.0 0.00 0.00 0.00 33 1017.0
20260831212841 82 225 8.0 0.0 0.00 0.00 0.00 33 1017.0
20260831212540 82 219 5.0 8.0 0.00 0.00 0.00 33 1017.0
20260831212339 82 213 6.0 0.0 0.00 0.00 0.00 33 1017.0
20260831212031 82 212 6.0 9.0 0.00 0.00 0.00 33 1017.0
20260831211839 83 220 9.0 0.0 0.00 0.00 0.00 33 1017.0
20260831211524 82 219 5.0 9.0 0.00 0.00 0.00 33 1017.0
20260831211354 82 257 6.0 0.0 0.00 0.00 0.00 33 1017.0
20260831211056 82 210 7.0 9.0 0.00 0.00 0.00 33 1017.0
20260831210851 82 206 9.0 0.0 0.00 0.00 0.00 33 1017.0
20260831210531 82 238 6.0 8.0 0.00 0.00 0.00 33 1017.0
20260831210347 82 233 8.0 0.0 0.00 0.00 0.00 33 1017.0
20260831210022 82 213 6.0 8.0 0.00 0.00 0.00 33 1017.0
20260831205841 82 284 5.0 0.0 0.00 0.00 0.00 33 1017.0
20260831205514 82 145 4.0 9.0 0.00 0.00 0.00 33 1017.0
20260831205336 82 265 5.0 0.0 0.00 0.00 0.00 33 1017.0
20260831205012 82 234 7.0 9.0 0.00 0.00 0.00 33 1017.0
20260831204833 83 274 3.0 0.0 0.00 0.00 0.00 33 1017.0
20260831204603 82 225 4.0 11.0 0.00 0.00 0.00 33 1017.0
20260831204504 82 217 5.0 11.0 0.00 0.00 0.00 33 1017.0
20260831204333 82 280 5.0 0.0 0.00 0.00 0.00 33 1017.0
20260831204055 82 222 6.0 11.0 0.00 0.00 0.00 33 1017.0
20260831203851 82 280 4.0 0.0 0.00 0.00 0.00 33 1017.0
20260831203528 82 236 6.0 11.0 0.00 0.00 0.00 33 1017.0
20260831203348 82 245 3.0 0.0 0.00 0.00 0.00 33 1017.0
20260831203037 82 272 6.0 6.0 0.00 0.00 0.00 33 1017.0
20260831202843 82 260 4.0 0.0 0.00 0.00 0.00 33 1017.0
20260831202515 83 231 4.0 6.0 0.00 0.00 0.00 33 1017.0
20260831202337 83 246 10.0 0.0 0.00 0.00 0.00 33 1017.0
20260831202008 83 253 5.0 7.0 0.00 0.00 0.00 33 1017.0
20260831201835 83 273 4.0 0.0 0.00 0.00 0.00 33 1017.0
20260831201602 82 234 4.0 7.0 0.00 0.00 0.00 33 1017.0
20260831201504 82 223 4.0 7.0 0.00 0.00 0.00 33 1017.0
20260831201330 83 308 2.0 0.0 0.00 0.00 0.00 33 1017.0
20260831201053 83 223 4.0 8.0 0.00 0.00 0.00 33 1017.0
20260831200844 83 241 9.0 0.0 0.00 0.00 0.00 33 1017.0
20260831200545 83 294 6.0 8.0 0.00 0.00 0.00 33 1017.0
20260831200340 84 221 6.0 0.0 0.00 0.00 0.00 33 1017.0
20260831200041 83 270 3.0 6.0 0.00 0.00 0.00 33 1017.0
20260831195833 83 263 2.0 0.0 0.00 0.00 0.00 33 1017.0
20260831195530 82 276 4.0 5.0 0.00 0.00 0.00 33 1017.0
20260831181826 81 254 1.0 0.0 0.00 0.00 0.00 33 1017.0
20260831181549 81 282 3.0 6.0 0.00 0.00 0.00 33 1017.0
20260831181345 81 276 5.0 0.0 0.00 0.00 0.00 33 1017.0
20260831181032 80 284 6.0 6.0 0.00 0.00 0.00 33 1017.0
20260831180902 81 246 5.0 0.0 0.00 0.00 0.00 33 1017.0
20260831180600 80 190 4.0 6.0 0.00 0.00 0.00 33 1017.0
20260831180505 80 208 3.0 6.0 0.00 0.00 0.00 33 1017.0
20260831180337 81 225 5.0 0.0 0.00 0.00 0.00 33 1017.0
20260831180056 80 263 4.0 7.0 0.00 0.00 0.00 33 1017.0
20260831175853 81 262 4.0 0.0 0.00 0.00 0.00 33 1017.0
20260831175528 80 231 4.0 7.0 0.00 0.00 0.00 33 1017.0
20260831175337 80 272 9.0 0.0 0.00 0.00 0.00 33 1017.0
20260831175010 80 274 4.0 7.0 0.00 0.00 0.00 33 1017.0
20260831174833 80 219 4.0 0.0 0.00 0.00 0.00 33 1017.0
20260831174507 79 206 6.0 7.0 0.00 0.00 0.00 33 1017.0
20260831174330 80 270 4.0 0.0 0.00 0.00 0.00 33 1017.0
20260831174058 79 285 3.0 5.0 0.00 0.00 0.00 33 1017.0
20260831173848 80 198 6.0 0.0 0.00 0.00 0.00 33 1017.0
20260831173532 79 276 4.0 5.0 0.00 0.00 0.00 33 1017.0
20260831173347 80 256 3.0 0.0 0.00 0.00 0.00 33 1017.0
20260831173007 79 240 3.0 3.0 0.00 0.00 0.00 33 1017.0
20260831172843 80 294 3.0 0.0 0.00 0.00 0.00 33 1017.0
20260831172601 79 263 2.0 4.0 0.00 0.00 0.00 33 1017.0
20260831172502 79 296 2.0 7.0 0.00 0.00 0.00 33 1017.0
20260831172340 79 181 4.0 0.0 0.00 0.00 0.00 33 1017.0
20260831172053 78 227 2.0 7.0 0.00 0.00 0.00 33 1017.0
20260831171836 78 290 4.0 0.0 0.00 0.00 0.00 33 1017.0
20260831171547 77 265 3.0 7.0 0.00 0.00 0.00 33 1017.0
20260831171333 78 218 3.0 0.0 0.00 0.00 0.00 33 1017.0
20260831171040 77 258 3.0 6.0 0.00 0.00 0.00 33 1017.0
20260831170849 77 222 6.0 0.0 0.00 0.00 0.00 33 1017.0
20260831170516 77 221 4.0 6.0 0.00 0.00 0.00 33 1017.0
20260831170346 77 264 4.0 0.0 0.00 0.00 0.00 33 1017.0
20260831170045 77 240 3.0 4.0 0.00 0.00 0.00 33 1017.0
20260831165903 77 204 5.0 0.0 0.00 0.00 0.00 33 1017.0
20260831165521 76 233 2.0 4.0 0.00 0.00 0.00 33 1017.0
20260831165336 77 237 4.0 0.0 0.00 0.00 0.00 33 1017.0
20260831165009 76 271 3.0 3.0 0.00 0.00 0.00 33 1017.0
20260831164831 76 287 3.0 0.0 0.00 0.00 0.00 33 1017.0
20260831164604 76 218 2.0 2.0 0.00 0.00 0.00 33 1017.0
20260831164502 76 218 1.0 2.0 0.00 0.00 0.00 33 1017.0
20260831164347 76 209 1.0 0.0 0.00 0.00 0.00 33 1017.0
20260831164035 76 212 1.0 4.0 0.00 0.00 0.00 33 1017.0
20260831163824 76 181 2.0 0.0 0.00 0.00 0.00 33 1017.0
20260831163524 75 257 2.0 4.0 0.00 0.00 0.00 33 1017.0
20260831163341 75 257 2.0 0.0 0.00 0.00 0.00 33 1017.0
20260831163017 75 243 2.0 3.0 0.00 0.00 0.00 33 1017.0
20260831162857 75 243 2.0 0.0 0.00 0.00 0.00 33 1017.0
20260831162548 74 243 1.0 3.0 0.00 0.00 0.00 33 1017.0
20260831162333 75 243 3.0 0.0 0.00 0.00 0.00 33 1017.0
20260831162042 74 249 1.0 4.0 0.00 0.00 0.00 33 1017.0
20260831161849 75 250 3.0 0.0 0.00 0.00 0.00 33 1017.0
20260831161516 74 250 0.0 4.0 0.00 0.00 0.00 33 1017.0
20260831161346 75 210 1.0 0.0 0.00 0.00 0.00 33 1017.0
20260831161042 74 264 1.0 3.0 0.00 0.00 0.00 33 1017.0
20260831160839 74 251 3.0 0.0 0.00 0.00 0.00 33 1017.0
20260831160539 74 212 1.0 3.0 0.00 0.00 0.00 33 1017.0
20260831160334 74 210 4.0 0.0 0.00 0.00 0.00 33 1017.0
20260831160042 74 232 1.0 4.0 0.00 0.00 0.00 33 1017.0
20260831155832 74 287 1.0 0.0 0.00 0.00 0.00 33 1017.0
20260831155529 73 287 0.0 4.0 0.00 0.00 0.00 33 1017.0
20260831155352 74 288 2.0 0.0 0.00 0.00 0.00 33 1017.0
20260831155005 73 258 2.0 3.0 0.00 0.00 0.00 33 1017.0
20260831154830 74 226 4.0 0.0 0.00 0.00 0.00 33 1017.0
20260831154556 74 226 0.0 1.0 0.00 0.00 0.00 33 1017.0
20260831154345 74 226 0.0 0.0 0.00 0.00 0.00 33 1017.0
20260831154051 73 226 1.0 1.0 0.00 0.00 0.00 33 1017.0
20260831153903 73 226 1.0 0.0 0.00 0.00 0.00 33 1017.0
20260831153520 73 226 0.0 1.0 0.00 0.00 0.00 33 1017.0
20260831153337 73 226 1.0 0.0 0.00 0.00 0.00 33 1017.0
20260831153033 72 226 1.0 1.0 0.00 0.00 0.00 33 1017.0
20260831152833 73 226 1.0 0.0 0.00 0.00 0.00 33 1017.0
20260831152512 72 226 0.0 2.0 0.00 0.00 0.00 33 1017.0
20260831152333 72 226 0.0 0.0 0.00 0.00 0.00 33 1017.0
20260831152010 72 226 1.0 2.0 0.00 0.00 0.00 33 1017.0
20260831151830 72 226 2.0 0.0 0.00 0.00 0.00 33 1017.0
20260831151559 72 226 0.0 1.0 0.00 0.00 0.00 33 1017.0
20260831151502 72 226 0.0 1.0 0.00 0.00 0.00 33 1017.0
20260831151407 72 226 0.0 0.0 0.00 0.00 0.00 33 1017.0
20260831151030 71 226 0.0 1.0 0.00 0.00 0.00 33 1017.0
20260831150840 72 226 2.0 0.0 0.00 0.00 0.00 33 1017.0
20260831150601 71 226 0.0 1.0 0.00 0.00 0.00 33 1017.0
20260831150503 71 226 0.0 0.0 0.00 0.00 0.00 33 1017.0
20260831150335 71 226 0.0 0.0 0.00 0.00 0.00 33 1017.0
20260831150037 71 226 0.0 0.0 0.00 0.00 0.00 33 1017.0
20260831145852 71 226 0.0 0.0 0.00 0.00 0.00 33 1017.0
20260831145503 70 226 0.0 2.0 0.00 0.00 0.00 33 1017.0
20260831145326 70 226 0.0 0.0 0.00 0.00 0.00 33 1017.0
20260831145055 70 226 1.0 2.0 0.00 0.00 0.00 33 1017.0
20260831144843 70 226 3.0 0.0 0.00 0.00 0.00 33 1017.0
20260831144546 69 226 1.0 1.0 0.00 0.00 0.00 33 1017.0
20260831144336 70 226 2.0 0.0 0.00 0.00 0.00 33 1017.0
20260831144040 69 226 0.0 0.0 0.00 0.00 0.00 33 1017.0
20260831143830 69 226 0.0 0.0 0.00 0.00 0.00 33 1017.0
20260831143535 69 226 0.0 0.0 0.00 0.00 0.00 33 1017.0
20260831143329 69 226 0.0 0.0 0.00 0.00 0.00 33 1017.0
20260831143029 68 226 0.0 0.0 0.00 0.00 0.00 33 1017.0
20260831142846 69 226 1.0 0.0 0.00 0.00 0.00 33 1017.0
20260831142558 68 226 0.0 0.0 0.00 0.00 0.00 33 1017.0
20260831142502 68 226 0.0 0.0 0.00 0.00 0.00 33 1017.0
20260831142401 68 226 1.0 0.0 0.00 0.00 0.00 33 1017.0
20260831090406 69 166 2.0 0.0 0.00 0.00 0.00 33 1017.0
20260831090038 69 167 0.0 0.0 0.00 0.00 0.00 33 1017.0